TimeMST,TemperatureF,Dew PointF,Humidity,Sea Level PressureIn,VisibilityMPH,Wind Direction,Wind SpeedMPH,Gust SpeedMPH,PrecipitationIn,Events,Conditions,WindDirDegrees,DateUTC
12:53 AM,39.9,25.0,55,30.27,10.0,South,21.9,26.5,N/A,,Clear,190,2012-11-16 07:53:00
1:53 AM,39.9,25.0,55,30.23,10.0,South,21.9,27.6,N/A,,Clear,190,2012-11-16 08:53:00
2:53 AM,39.9,25.0,55,30.19,10.0,SSW,20.7,27.6,N/A,,Clear,200,2012-11-16 09:53:00
3:53 AM,37.9,25.0,60,30.20,10.0,West,9.2,23.0,N/A,,Clear,260,2012-11-16 10:53:00
4:53 AM,37.9,25.0,60,30.22,10.0,SW,12.7,-,N/A,,Clear,220,2012-11-16 11:53:00
5:53 AM,35.1,25.0,67,30.22,10.0,SSW,10.4,-,N/A,,Clear,210,2012-11-16 12:53:00
6:53 AM,37.0,26.1,65,30.20,10.0,SW,13.8,-,N/A,,Clear,230,2012-11-16 13:53:00
7:53 AM,41.0,27.0,57,30.19,10.0,SSW,11.5,-,N/A,,Clear,210,2012-11-16 14:53:00
8:53 AM,46.9,28.0,48,30.17,10.0,South,5.8,-,N/A,,Clear,190,2012-11-16 15:53:00
9:53 AM,53.1,28.9,40,30.14,10.0,SW,10.4,-,N/A,,Clear,220,2012-11-16 16:53:00
10:53 AM,55.0,30.0,38,30.11,10.0,South,13.8,-,N/A,,Clear,180,2012-11-16 17:53:00
11:53 AM,61.0,28.0,29,30.05,10.0,SSW,13.8,-,N/A,,Clear,210,2012-11-16 18:53:00
12:53 PM,63.0,27.0,26,30.03,10.0,South,13.8,-,N/A,,Clear,190,2012-11-16 19:53:00
1:53 PM,62.1,27.0,26,30.01,10.0,South,15.0,-,N/A,,Clear,190,2012-11-16 20:53:00
2:53 PM,64.0,27.0,25,30.00,10.0,SSW,16.1,-,N/A,,Clear,210,2012-11-16 21:53:00
3:53 PM,55.9,28.9,36,30.02,10.0,South,10.4,-,N/A,,Clear,190,2012-11-16 22:53:00
4:53 PM,53.1,30.0,41,30.02,10.0,South,11.5,-,N/A,,Clear,180,2012-11-16 23:53:00
5:53 PM,51.1,30.0,44,30.04,10.0,SSW,6.9,-,N/A,,Clear,210,2012-11-17 00:53:00
6:53 PM,46.0,28.9,51,30.05,10.0,SSW,6.9,-,N/A,,Clear,210,2012-11-17 01:53:00
7:53 PM,48.0,30.0,50,30.03,10.0,SSW,6.9,-,N/A,,Clear,210,2012-11-17 02:53:00
8:53 PM,45.0,28.9,53,30.03,10.0,SW,5.8,-,N/A,,Clear,220,2012-11-17 03:53:00
9:53 PM,42.1,30.0,62,30.02,10.0,WSW,3.5,-,N/A,,Clear,250,2012-11-17 04:53:00
10:53 PM,39.0,28.9,67,30.03,10.0,WSW,3.5,-,N/A,,Clear,240,2012-11-17 05:53:00
11:53 PM,45.0,28.9,53,30.00,10.0,SW,5.8,-,N/A,,Clear,220,2012-11-17 06:53:00